This demonstration page uses our WeatherBlox Daily Observations layout. Learn more.

Left ArrowRight Arrow

39.08367, -84.50855

Hourly Observations for August 1, 2017

Temp ( °F °C ) Dew Point ( °F °C ) Humidity (%) Winds ( mph kmh ) Pressure ( in mb ) Visibility ( mi km ) Precip ( " mm )
12:53 am 00:53 Clear 66 18.9 65 18.3 96 96 N N/A 30.11 1020 10 16 N/A
1:53 am 01:53 Clear 65 18.3 64 17.8 97 97 N N/A 30.11 1020 10 16 N/A
2:53 am 02:53 Clear 64 17.8 64 17.8 100 100 N N/A 30.11 1020 8 13 N/A
3:53 am 03:53 Clear 64 17.8 64 17.8 100 100 N N/A 30.11 1020 9 14 N/A
4:53 am 04:53 Partly Cloudy 64 17.8 64 17.8 100 100 N N/A 30.11 1020 8 13 N/A
5:53 am 05:53 Mostly Clear 64 17.8 64 17.8 100 100 ENE 5 7 30.11 1020 9 14 N/A
6:53 am 06:53 Sunny 65 18.3 64 17.8 97 97 N N/A 30.12 1020 8 13 N/A
7:53 am 07:53 Sunny 66 18.9 65 18.3 96 96 N N/A 30.13 1020 10 16 N/A
8:53 am 08:53 Sunny 68 20 67 19.4 96 96 NNE 3 6 30.14 1021 10 16 N/A
9:53 am 09:53 Sunny 72 22.2 67 19.4 84 84 N N/A 30.13 1020 10 16 N/A
10:53 am 10:53 Sunny 74 23.3 68 20 82 82 N N/A 30.13 1020 10 16 N/A
11:53 am 11:53 Sunny 78 25.6 70 21.1 76 76 WSW 5 7 30.12 1020 10 16 N/A
12:53 pm 12:53 Sunny 80 26.7 67 19.4 64 64 S 7 11 30.12 1020 10 16 N/A
1:53 pm 13:53 Sunny 82 27.8 65 18.3 56 56 S 5 7 30.11 1020 10 16 N/A
2:53 pm 14:53 Sunny 82 27.8 66 18.9 58 58 SSW 3 6 30.09 1019 10 16 N/A
3:53 pm 15:53 Sunny 83 28.3 66 18.9 57 57 N N/A 30.07 1018 10 16 N/A
4:53 pm 16:53 Sunny 82 27.8 66 18.9 58 58 SSE 5 7 30.06 1018 10 16 N/A
5:53 pm 17:53 Sunny 81 27.2 69 20.6 67 67 S 6 9 30.06 1018 10 16 N/A
6:53 pm 18:53 Sunny 79 26.1 69 20.6 72 72 S 5 7 30.05 1018 10 16 N/A
7:53 pm 19:53 Sunny 79 26.1 72 22.2 79 79 N N/A 30.04 1017 10 16 N/A
8:53 pm 20:53 Clear 74 23.3 70 21.1 88 88 S 3 6 30.05 1018 10 16 N/A
9:53 pm 21:53 Clear 73 22.8 70 21.1 90 90 N N/A 30.06 1018 10 16 N/A
10:53 pm 22:53 Clear 69 20.6 68 20 96 96 N N/A 30.06 1018 9 14 N/A
11:53 pm 23:53 Clear 67 19.4 67 19.4 100 100 N N/A 30.07 1018 7 11 N/A

Powered by AerisWeather